Location: Liberec
(50.7830°N, 15.0500°E)
Time: 05:45:45
(UTC+02:00)

ISS - Pass Details

Date: 20 May 2021
Orbit: 417 x 422 km, 51.6° (Epoch: 13 June)

Event Time Altitude Azimuth Distance (km) Brightness Sun altitude
Rises 22:55:12 0° 273° (W) 2,365 0.5 -14.2°
Reaches altitude 10° 22:57:18 10° 275° (W) 1,502 -0.5 -14.4°
Maximum altitude 23:00:40 74° 1° (N) 441 -3.6 -14.6°
Drops below altitude 10° 23:04:03 10° 87° (E) 1,505 -1.2 -14.9°
Enters shadow 23:04:12 - 87° (E) 1,566 -1.1 -14.9°
